Lapse_Rate
9.2 9.1 9.3 8.7 9.1 9.4 9.0 7.9 8.1 8.3 9.2 8.9 8.2 8.3 8.5 8.6 8.4 8.7 9.3 9.2 9.0 8.7 8.5 8.3 8.3 8.1 8.4 8.0 7.8 8.4 7.2 8.9 9.2 9.0 8.7 8.3 7.7 7.2 6.5 6.8 7.0 6.5 6.6 7.2 7.3 7.3 7.2
8.6 8.6 8.9 8.3 9.0 9.0 9.1 8.0 8.0 8.2 9.2 8.1 8.2 8.2 8.3 8.4 8.2 8.3 8.4 8.5 8.0 8.3 8.4 8.3 8.1 7.6 8.5 6.6 9.7 9.7 7.3 8.1 9.5 8.9 8.5 8.5 8.0 8.1 7.1 6.8 6.6 7.1 6.9 7.0 7.3 7.1 7.2
9.2 8.5 9.3 8.6 9.0 9.1 9.0 8.9 8.7 9.3 9.2 8.2 8.3 8.2 8.2 8.4 8.0 8.3 8.5 8.5 8.1 8.1 8.3 8.4 8.3 8.7 8.2 7.8 9.6 8.5 7.1 8.8 9.5 9.1 8.3 8.7 8.7 7.8 7.6 6.5 7.5 7.1 6.5 6.5 6.7 7.0 6.6
8.7 9.3 9.1 8.9 9.0 9.1 9.0 9.3 8.5 8.9 8.6 8.9 8.9 8.6 8.4 8.4 8.4 8.3 8.5 8.5 8.0 7.8 7.9 8.2 8.2 8.3 7.5 9.3 8.3 7.4 7.5 9.2 9.1 9.5 9.0 8.8 9.0 8.1 7.4 7.7 7.1 6.5 6.5 6.5 6.5 6.7 6.9
8.4 9.1 8.9 9.2 8.8 9.2 9.2 9.3 8.8 9.0 8.7 8.3 8.2 8.1 7.9 8.1 8.4 9.1 8.8 8.1 7.8 7.7 7.7 8.2 8.3 8.5 7.2 9.1 7.8 8.9 8.5 7.9 8.7 9.1 8.5 8.5 7.3 7.5 7.4 6.5 6.5 6.5 6.5 6.5 6.5 6.7 6.5
9.2 8.5 9.0 8.9 8.9 9.1 9.3 8.9 9.2 9.0 8.5 8.2 9.0 8.4 7.8 7.4 8.1 8.6 8.1 7.7 7.4 7.4 8.2 8.6 8.3 7.7 8.2 7.7 8.1 8.2 7.8 7.7 7.5 8.3 7.4 7.5 6.6 6.5 6.5 6.5 6.5 6.5 6.5 6.5 6.5 6.5 6.5
8.3 8.8 8.8 8.7 9.3 9.2 9.3 9.2 8.7 8.5 8.0 8.2 8.7 7.8 7.9 7.4 7.4 8.3 7.9 7.7 8.2 7.9 8.3 7.5 7.5 7.5 7.9 6.8 7.2 6.8 6.8 6.0 8.1 7.6 6.5 6.9 6.5 6.5 6.5 6.5 6.5 6.5 6.5 6.5 6.5 6.5 6.5
7.9 8.6 8.6 9.2 9.2 9.3 8.8 8.8 8.8 8.2 8.3 8.2 8.1 7.9 7.5 7.7 7.4 7.6 7.8 8.1 7.7 7.8 6.8 7.9 8.1 8.2 8.4 6.5 7.0 6.5 8.3 6.6 7.0 6.5 6.5 6.5 6.5 6.5 6.5 6.5 6.5 6.5 6.5 6.5 6.5 6.5 6.5
6.4 7.3 8.7 9.3 9.3 9.2 9.3 8.8 8.9 8.4 8.0 7.9 7.9 7.6 7.2 7.1 6.8 7.6 7.9 7.6 7.2 8.3 6.8 7.2 8.0 7.7 6.3 6.9 7.1 7.1 8.0 6.4 6.5 6.5 6.5 6.5 6.5 6.5 6.5 6.5 6.5 6.5 6.5 6.5 6.5 6.5 6.5
6.4 7.1 8.4 9.1 9.2 9.1 8.7 8.9 8.5 8.5 7.9 7.7 7.3 7.5 7.8 7.4 8.1 8.2 7.5 7.6 7.6 8.0 6.5 6.5 6.7 6.7 6.3 6.0 6.7 8.4 7.2 6.9 6.6 6.5 6.5 6.5 6.6 6.5 6.5 6.5 6.5 6.5 6.5 6.5 6.5 6.5 6.5
6.5 6.8 8.2 8.7 8.6 8.4 7.9 8.7 7.9 7.9 7.2 5.7 6.7 6.8 7.3 6.8 8.0 7.6 8.0 7.7 7.8 7.5 6.5 6.5 6.7 7.2 7.5 6.9 7.2 7.1 7.2 6.6 6.5 6.5 6.5 6.5 6.5 6.5 6.5 6.5 6.5 6.5 6.5 6.5 6.5 6.5 6.5
6.0 6.3 8.3 8.6 8.5 8.6 7.3 8.0 6.3 6.1 7.3 5.8 5.9 6.0 5.8 7.0 8.1 7.2 7.4 8.3 8.2 6.5 6.5 6.5 6.8 6.5 6.5 6.8 6.8 7.3 7.3 7.2 7.5 6.5 6.5 6.5 6.8 6.5 6.5 6.5 6.5 6.5 6.5 6.5 6.5 6.5 6.5
5.3 6.3 8.1 8.2 7.9 7.2 7.1 6.6 5.9 5.5 5.6 5.7 5.6 6.0 6.1 5.8 6.2 7.0 7.6 8.1 6.5 6.5 6.5 6.5 6.5 6.5 6.5 6.5 6.5 6.5 6.5 6.5 6.5 6.5 6.5 6.5 6.5 6.5 6.6 6.5 6.5 6.5 6.5 6.5 6.5 6.5 6.5
5.0 6.6 7.7 8.5 8.0 6.8 7.3 5.6 5.8 5.0 5.1 4.7 5.0 5.2 6.3 7.1 6.8 7.5 7.7 6.6 6.5 6.5 6.5 6.5 6.5 6.5 6.5 6.5 6.5 6.5 6.5 6.5 6.5 6.5 6.5 6.5 6.5 6.5 6.5 6.5 6.5 6.5 6.5 6.5 6.5 6.5 6.5
5.2 5.7 6.9 8.4 8.0 5.8 5.8 5.4 5.4 4.7 4.9 4.5 3.9 5.3 6.3 7.4 6.5 7.5 7.5 6.5 6.5 6.5 6.5 6.5 6.5 6.5 6.5 6.5 6.5 6.5 6.5 6.5 6.5 6.5 6.5 6.5 6.5 6.5 6.5 6.5 6.5 6.5 6.5 6.5 6.5 6.5 6.5
5.2 5.5 5.9 7.4 7.7 6.5 5.7 5.1 5.0 4.8 4.4 3.9 4.1 4.7 6.4 5.6 5.3 6.8 6.6 6.5 6.5 6.5 6.5 6.5 6.5 6.5 6.5 6.5 6.5 6.5 6.5 6.5 6.5 6.5 6.6 6.5 6.5 6.5 6.5 6.6 6.6 6.5 6.5 6.5 6.5 6.5 6.5
5.3 5.6 5.9 6.5 7.5 6.7 6.1 5.4 4.9 4.8 4.3 3.8 4.6 6.7 5.7 4.3 5.2 7.2 6.5 6.5 6.5 7.0 7.0 6.5 6.5 6.5 6.5 6.5 6.5 6.5 6.5 6.5 6.5 6.5 6.6 6.5 6.5 6.5 6.5 6.5 6.5 6.5 6.5 6.5 6.5 6.5 6.5
5.5 5.7 6.0 6.1 7.6 6.3 5.9 5.3 5.0 4.8 4.4 4.0 4.9 6.5 5.1 4.4 6.7 6.8 6.5 6.5 6.9 6.6 7.2 6.5 6.5 6.5 6.5 6.5 6.5 6.5 6.5 6.5 6.9 6.7 6.5 6.5 6.5 6.5 6.5 6.5 6.5 6.5 6.5 6.5 6.5 6.5 6.5
5.8 5.8 6.2 6.2 7.8 8.0 6.7 5.6 5.1 5.0 5.4 5.2 5.6 6.0 4.6 4.8 6.5 6.5 6.5 6.5 6.7 6.5 6.5 6.5 6.5 6.5 6.5 6.5 6.5 6.5 6.5 6.8 7.0 6.5 6.5 6.5 6.5 6.5 6.5 6.5 6.5 6.5 6.5 6.5 6.5 6.5 6.5
5.8 6.0 6.4 6.5 7.9 8.3 7.0 6.0 5.2 5.3 5.1 5.4 6.5 6.5 7.0 7.1 7.6 6.5 6.5 6.5 6.5 7.0 6.6 6.7 6.5 6.6 6.5 6.5 6.5 6.5 6.5 6.5 7.0 6.8 6.5 6.7 6.5 6.5 6.5 6.5 6.5 6.5 6.5 6.5 6.5 6.5 6.5
6.0 5.8 6.5 6.6 7.1 8.3 7.5 6.6 5.6 5.2 5.2 6.1 6.8 6.7 7.3 6.5 6.6 6.5 6.5 6.5 6.5 6.5 6.7 6.9 6.5 6.5 6.5 6.5 6.5 6.5 6.5 6.5 6.7 6.8 6.7 6.5 6.5 6.5 6.5 6.5 6.5 6.5 6.5 6.5 6.5 6.5 6.5
6.3 6.2 6.8 6.9 7.4 8.1 8.3 7.6 7.1 5.5 4.9 7.6 7.2 6.9 7.4 6.9 7.1 6.5 6.5 6.5 6.5 6.5 6.5 6.5 6.5 6.5 6.5 6.5 6.5 6.5 6.5 6.5 6.5 6.5 6.5 6.5 6.5 6.5 6.5 6.5 6.5 6.5 6.5 6.5 6.5 6.5 6.5
6.5 7.0 7.5 7.4 7.3 8.0 8.0 8.1 8.1 7.4 6.2 6.9 7.2 7.1 6.7 6.8 6.6 6.5 6.5 6.5 6.5 6.5 6.8 6.9 6.6 6.5 6.5 6.5 6.9 7.1 7.2 7.0 6.6 6.5 6.5 6.5 6.5 6.5 6.5 6.5 6.5 6.5 6.5 6.5 6.5 6.5 6.5
7.1 8.2 8.2 8.4 7.8 7.7 7.9 8.0 8.3 8.4 6.9 7.1 7.4 6.6 6.8 6.5 6.5 6.5 6.5 6.6 6.5 6.5 6.5 6.8 7.1 6.5 7.2 7.2 7.8 7.6 7.4 7.1 6.9 6.6 6.8 6.5 6.5 6.5 6.5 6.5 6.5 6.5 6.5 6.5 6.5 6.5 6.5
7.9 8.3 8.3 8.3 8.0 7.8 7.7 7.9 8.0 8.2 8.2 8.0 7.0 6.7 6.9 6.5 6.7 6.6 6.6 6.5 6.8 7.0 6.6 6.7 7.1 6.9 7.7 7.3 6.5 6.5 6.5 6.5 6.5 6.5 6.5 6.5 6.5 6.5 6.5 6.5 6.5 6.5 6.5 6.5 6.5 6.5 6.5
7.8 7.8 7.7 7.9 7.9 7.8 7.8 7.7 8.1 8.1 8.7 7.8 7.3 7.5 6.8 6.8 6.6 7.2 6.7 6.9 6.5 6.5 6.5 6.9 6.9 6.5 6.6 6.5 6.5 6.5 6.5 6.5 6.5 6.5 6.5 6.5 6.5 6.5 6.5 6.5 6.5 6.5 6.5 6.9 6.6 6.5 6.6
7.5 7.6 7.4 7.8 8.0 7.9 7.7 7.7 7.8 8.3 8.4 8.2 7.8 7.7 7.0 6.9 7.7 6.9 6.6 6.7 7.3 6.8 6.5 6.8 7.1 6.7 6.4 6.5 6.5 6.5 6.5 6.5 6.5 6.5 6.5 6.5 6.5 6.5 6.5 6.5 6.5 6.5 6.6 7.1 6.5 6.5 6.8
7.6 7.7 7.6 7.7 8.0 7.9 7.8 7.9 7.3 8.0 8.4 8.2 7.8 7.2 7.8 7.2 6.7 7.7 7.5 6.8 7.2 7.2 6.5 7.0 6.8 6.7 6.6 6.5 6.5 6.5 6.5 6.5 6.5 6.5 6.5 6.5 6.5 6.5 6.5 6.5 6.5 6.9 6.7 6.5 6.5 7.1 7.2
7.1 6.6 7.3 7.7 8.0 7.7 7.8 8.0 7.6 8.1 8.6 8.3 7.2 6.8 8.0 7.6 7.6 7.2 6.0 6.0 5.6 6.5 7.3 7.2 6.9 6.9 6.9 6.5 6.5 6.5 6.5 6.5 6.5 6.5 6.5 6.5 6.5 6.5 6.5 6.5 6.7 6.8 6.4 7.1 7.1 7.2 7.3
Wind_Speed
20 22 22 21 24 25 25 26 25 23 25 26 23 20 20 17 16 15 14 14 14 14 10 9 8 6 6 7 13 3 4 4 22 20 22 20 21 18 18 17 12 15 5 9 6 7 5
20 21 22 22 23 26 26 27 26 25 25 25 23 20 20 18 15 16 15 12 12 11 9 8 7 2 6 13 9 14 5 5 14 24 22 20 18 16 13 11 14 12 7 11 11 7 4
21 20 22 23 25 25 27 25 26 26 27 27 23 21 19 20 16 13 14 11 12 12 10 8 7 4 9 16 3 4 1 6 12 24 23 20 13 18 9 9 10 4 13 13 9 9 9
20 21 22 23 25 25 27 27 27 27 26 27 26 23 20 17 15 14 13 12 13 14 12 11 6 5 7 9 20 15 3 8 12 22 20 15 16 16 8 5 11 14 7 10 10 16 5
20 22 22 23 25 28 29 27 27 25 28 28 29 27 23 16 14 14 13 12 13 15 11 8 5 5 7 2 11 16 10 6 14 21 16 13 9 15 8 14 10 14 10 18 5 9 13
20 21 23 25 26 28 27 28 27 29 29 29 30 26 21 13 11 10 9 11 10 2 2 4 1 5 6 8 8 4 6 5 8 21 11 15 8 11 14 15 15 19 15 13 14 7 9
19 21 23 24 26 28 28 26 29 30 30 31 32 29 22 11 7 5 3 3 2 3 3 3 2 4 7 11 6 2 2 5 13 19 10 19 6 18 24 19 3 10 16 9 8 5 6
19 20 22 25 25 26 26 28 29 30 31 30 31 30 20 4 3 6 1 1 2 3 3 4 8 10 5 1 4 6 7 8 15 21 11 8 13 15 16 13 7 14 14 10 6 5 5
17 18 21 23 25 26 28 27 29 30 30 28 29 25 21 14 12 4 3 2 1 1 2 1 0 3 5 3 2 8 4 1 20 14 17 5 7 15 18 16 13 9 12 11 4 6 2
17 18 21 23 25 26 28 27 27 29 29 28 27 20 16 5 5 2 2 1 1 2 1 5 2 4 5 11 4 7 4 3 4 9 6 1 3 18 19 18 16 12 5 8 7 5 3
16 18 20 22 25 26 27 27 27 27 28 25 21 20 12 14 3 2 4 3 3 2 4 2 2 3 4 1 14 3 1 2 10 11 6 4 6 15 20 20 15 6 9 8 5 3 2
16 17 19 21 23 26 27 28 27 27 27 25 21 16 9 4 5 4 3 2 2 3 7 6 4 5 3 3 5 7 5 6 10 9 14 7 4 4 2 7 6 15 10 8 4 1 3
14 16 19 20 21 25 26 28 28 27 27 26 21 14 4 2 1 4 4 3 1 6 3 6 5 4 7 4 11 8 4 4 3 5 4 5 4 5 4 9 3 8 12 4 3 4 2
14 15 18 19 23 26 27 28 30 28 28 30 17 9 2 1 4 4 2 2 10 4 4 2 2 4 4 6 7 8 3 5 8 8 4 2 4 2 3 2 9 10 3 2 4 4 3
13 15 17 19 21 24 26 28 29 30 28 25 13 1 2 1 2 2 3 6 3 2 2 1 3 4 3 7 5 4 2 4 3 3 3 4 4 2 3 4 6 4 4 2 4 2 1
12 14 16 19 19 24 27 28 30 31 29 16 4 3 1 2 2 1 1 5 1 3 2 4 2 2 4 5 3 2 1 2 3 0 2 3 6 3 4 1 10 1 8 2 0 4 4
12 14 16 18 18 23 26 30 31 31 32 11 1 2 2 4 2 2 3 4 1 3 3 2 2 3 6 4 4 2 2 3 2 2 2 5 3 3 2 1 7 4 3 2 2 1 2
11 14 16 16 17 19 23 26 31 32 31 5 3 1 2 1 2 2 2 2 2 2 4 2 2 6 5 3 3 2 3 1 1 2 3 1 4 4 2 2 2 1 2 4 2 4 0
10 13 14 16 17 19 24 26 29 31 28 4 4 2 1 3 3 3 1 1 2 3 2 1 2 1 1 3 3 3 3 3 1 1 5 6 4 5 5 3 1 4 4 2 5 2 5
9 12 14 15 18 17 21 24 28 31 29 2 2 1 2 2 1 1 2 2 3 1 3 2 2 2 4 3 3 4 4 3 0 2 6 3 2 1 2 3 3 4 8 9 4 3 4
9 11 14 16 16 14 18 21 25 29 29 2 3 2 1 2 2 2 1 1 1 2 2 5 2 1 3 3 3 4 2 4 3 2 2 1 3 2 1 3 2 1 5 11 7 4 5
7 10 14 16 16 18 17 20 23 26 25 2 3 3 4 3 5 4 3 2 2 1 2 0 2 1 1 2 1 7 6 4 3 3 2 2 3 2 1 1 4 5 8 10 14 14 13
6 9 13 15 16 17 14 15 18 20 15 3 3 2 2 3 3 3 1 1 3 3 2 1 5 4 3 1 1 2 1 4 5 7 5 3 5 2 1 0 3 7 15 16 9 9 13
6 7 9 13 14 14 16 12 12 14 9 2 2 2 2 2 3 2 4 4 2 3 1 2 1 1 4 8 9 10 11 10 7 6 2 6 5 1 0 2 4 3 2 5 17 10 13
8 7 7 10 13 13 14 10 11 10 6 2 2 2 2 3 4 7 4 3 1 2 3 2 2 2 7 2 4 5 2 1 5 5 2 2 4 2 2 3 5 2 4 6 8 7 16
9 9 8 11 14 13 13 11 11 9 10 1 1 2 2 3 3 3 4 3 2 2 3 3 2 1 1 1 1 3 4 3 4 3 4 4 3 2 2 3 3 3 3 3 3 3 3
8 9 8 12 13 14 14 12 10 10 10 1 2 2 1 3 4 4 4 3 1 1 2 3 5 2 2 1 1 2 3 2 5 6 5 4 2 7 6 4 5 5 4 1 2 3 1
10 7 9 11 12 15 15 14 7 11 10 1 2 5 2 3 7 8 7 4 3 2 3 4 4 2 2 4 3 2 2 4 3 2 4 8 5 4 4 4 6 3 4 3 3 3 5
7 7 8 10 15 14 15 14 10 12 11 2 2 3 5 3 5 6 10 13 11 11 4 2 2 3 3 3 2 2 2 3 3 3 2 5 4 2 5 3 2 1 2 3 2 1 3
Wind_Direction
351 346 346 347 340 338 336 336 338 332 330 324 323 322 314 318 311 305 308 303 308 303 282 276 279 281 280 233 236 175 14 162 205 197 200 189 192 199 195 198 192 216 196 198 199 168 152
353 344 348 348 346 340 334 341 341 333 333 327 323 322 312 311 305 301 302 305 305 293 289 280 273 265 224 246 244 233 227 306 203 190 201 193 200 191 204 197 198 200 197 206 211 193 176
347 349 348 350 345 340 335 345 341 335 334 329 327 320 314 308 301 297 292 300 290 291 289 287 259 224 232 236 242 56 122 283 194 189 192 197 191 186 163 183 205 141 205 228 201 210 226
352 350 352 349 347 339 340 345 341 337 328 331 331 324 317 304 301 299 298 295 294 294 290 271 262 226 252 254 241 283 219 245 210 190 199 185 195 183 189 158 165 190 197 198 213 210 200
354 350 350 350 345 346 346 343 340 338 339 334 329 322 311 299 289 297 299 293 291 296 279 255 216 222 256 289 185 238 195 224 171 180 200 187 198 180 155 164 159 186 203 213 179 208 207
352 352 353 349 350 348 347 346 344 342 342 339 339 337 324 296 285 297 305 296 305 306 149 160 224 214 235 218 164 162 175 196 163 168 177 197 193 179 175 180 194 189 196 205 210 171 206
354 351 352 349 350 352 348 346 340 347 344 344 345 336 327 293 255 284 321 319 209 168 211 240 208 264 41 342 137 89 184 120 164 167 177 192 211 186 187 194 313 170 190 188 206 142 208
354 353 351 350 350 350 346 348 350 348 348 351 352 348 337 276 154 100 61 348 40 2 280 246 264 268 280 5 186 154 206 175 174 176 157 167 209 204 182 179 161 175 179 188 123 156 222
350 352 352 351 350 350 350 350 348 349 349 355 359 2 29 93 106 85 61 347 307 324 275 6 73 323 315 306 157 164 164 316 154 163 183 222 180 183 179 181 184 184 187 168 157 149 120
348 354 354 352 351 351 352 351 350 349 350 354 2 6 9 90 74 81 55 141 267 251 220 41 47 248 234 224 118 148 121 57 93 121 146 316 210 175 183 182 176 171 157 142 133 183 216
349 354 353 355 351 353 351 352 349 350 349 353 359 4 1 31 90 37 332 80 140 251 77 38 220 257 316 70 129 163 330 296 95 129 182 201 131 187 184 187 188 122 142 117 111 110 304
351 351 353 354 353 351 351 351 350 348 347 351 347 1 2 15 49 17 357 33 252 265 37 353 58 11 10 147 93 155 96 62 114 97 93 57 82 46 82 41 139 135 114 77 72 100 233
351 351 350 352 354 351 352 351 348 348 345 346 338 332 32 52 96 303 298 299 261 47 320 6 7 344 100 82 109 107 35 92 115 124 65 89 56 90 103 78 16 141 151 135 178 197 245
347 351 350 352 355 351 352 351 347 348 345 338 330 312 331 144 194 271 309 261 52 337 9 343 315 97 63 34 86 76 329 100 62 73 77 85 112 35 297 127 151 154 227 216 181 189 139
349 351 349 352 356 352 350 351 348 347 346 342 329 310 254 148 273 282 286 49 51 296 256 5 87 62 82 62 81 86 37 77 100 165 129 138 84 78 97 130 145 171 211 43 104 77 246
349 350 349 349 354 353 349 350 350 348 346 348 329 316 266 356 294 206 334 93 52 240 291 246 86 263 113 108 93 103 121 75 105 359 264 129 110 49 155 156 53 214 131 150 337 179 226
348 350 353 348 355 355 350 349 350 350 348 350 342 274 89 339 233 30 37 61 315 257 247 326 99 114 107 126 146 95 68 113 139 89 120 123 90 128 174 188 168 149 184 63 94 321 268
346 353 352 352 350 355 351 351 350 351 351 4 330 342 30 271 57 50 48 326 317 279 195 253 66 87 141 117 121 111 115 76 122 163 100 53 101 136 92 39 318 291 200 198 218 169 15
347 352 351 348 348 355 352 353 352 351 354 320 338 298 289 276 93 81 58 280 271 318 2 34 115 34 150 124 120 114 107 9 112 93 150 168 137 140 159 184 193 219 197 147 94 71 196
349 349 349 352 351 357 356 354 352 351 348 328 311 322 357 53 33 53 118 29 344 353 322 2 102 128 129 100 42 140 126 67 38 83 75 97 100 325 133 92 114 190 190 188 169 181 159
341 345 349 351 349 357 356 353 355 355 349 294 3 38 22 334 63 8 237 113 347 340 358 350 119 135 147 133 117 133 125 120 71 74 67 67 104 78 63 83 124 229 203 195 206 188 209
335 343 345 350 348 351 357 355 355 2 353 45 7 356 347 290 307 269 217 158 168 160 305 49 195 69 348 170 229 182 156 177 172 162 105 31 108 95 100 172 220 250 232 216 222 229 247
330 340 346 350 350 348 357 355 355 9 18 8 359 319 294 306 313 260 53 66 140 172 112 344 139 129 105 69 0 25 67 125 147 171 155 127 140 156 171 343 270 262 230 208 205 211 223
305 320 341 347 349 336 348 351 352 4 42 354 332 304 302 300 312 341 343 335 300 206 165 62 82 153 117 118 114 93 84 86 93 71 119 147 115 123 178 214 234 76 121 224 214 212 217
280 300 308 327 338 337 341 340 349 341 15 11 320 322 320 297 331 301 330 266 208 121 106 84 36 70 156 184 119 122 84 135 74 52 81 186 145 126 252 239 311 181 174 153 176 216 220
276 294 308 326 336 335 335 333 332 322 333 59 294 317 318 320 243 341 307 297 234 160 135 100 76 120 104 61 181 174 182 146 160 126 57 90 102 224 171 270 248 58 83 201 230 145 169
278 284 306 320 331 338 334 319 331 320 317 220 267 232 267 280 271 336 239 285 283 218 127 143 150 153 305 141 183 185 163 169 171 179 169 167 170 219 227 259 274 246 250 160 204 105 141
276 271 294 316 328 329 330 334 301 301 309 263 263 216 250 265 279 272 296 299 311 249 186 137 141 164 151 195 207 167 203 182 179 147 178 192 190 191 202 221 254 149 143 197 351 306 281
240 257 295 312 321 323 324 331 305 301 294 290 251 201 227 240 276 297 278 266 252 271 316 199 344 148 144 135 181 146 177 191 207 201 184 209 216 210 223 228 62 146 54 16 340 20 19